Wind_Speed
25 27 22 22 22 22 24 20 24 17 18 20 17 17 12 10 11 13 10 15 17 12 12 14 12 10 15 11 12 12 7 7 9 4 7 9 8 10 10 10 10 9 8
25 28 27 23 20 20 22 25 22 26 26 25 22 22 22 17 15 16 15 11 14 14 14 14 16 11 12 11 10 6 10 8 11 11 6 12 12 11 12 13 10 9 9
26 28 28 27 27 24 26 18 21 22 21 22 21 22 22 22 21 21 20 19 16 18 18 16 15 15 16 14 12 12 9 11 13 11 13 11 15 14 13 13 13 14 17
28 29 29 29 27 27 23 27 21 21 24 21 23 22 22 21 24 23 22 21 20 19 18 18 18 17 15 17 16 18 18 17 15 13 11 13 19 17 16 15 17 19 21
28 29 29 29 30 27 27 25 23 23 23 25 24 25 26 26 23 20 22 24 23 21 18 21 19 18 19 18 18 16 17 17 15 14 17 18 14 18 21 20 20 19 20
29 27 30 25 26 27 26 26 25 25 26 27 26 25 26 28 25 20 25 23 24 24 25 22 21 21 20 19 21 21 22 22 20 18 21 21 18 21 22 22 22 21 23
31 25 24 25 25 26 29 28 28 25 25 24 26 27 28 30 29 26 24 27 28 26 25 23 21 18 16 20 21 19 18 21 27 27 28 27 24 19 19 18 21 25 26
24 26 24 23 22 21 21 22 23 24 26 25 24 25 24 25 27 26 27 28 29 30 28 24 23 21 21 20 18 19 22 22 21 21 24 21 22 21 27 28 25 24 26
24 23 20 19 19 19 19 18 17 15 15 18 20 21 24 26 26 28 30 30 32 31 30 30 31 27 23 24 26 26 29 28 25 21 23 26 26 26 25 22 28 27 29
22 21 20 20 19 16 16 15 16 17 17 17 18 20 20 22 23 24 24 27 30 28 25 20 18 23 28 27 25 26 30 30 28 30 30 29 27 28 30 30 30 33 35
21 19 18 13 11 13 14 15 15 17 17 16 14 14 16 18 18 17 15 18 21 22 20 19 20 22 20 23 23 25 28 30 31 32 33 34 34 35 34 32 33 36 39
21 19 19 20 14 13 11 10 10 11 12 9 8 10 12 12 14 14 14 13 16 20 21 19 20 21 22 24 25 26 28 31 31 32 33 34 35 35 35 33 33 36 37
20 20 15 13 13 10 10 12 12 9 6 7 8 11 12 10 9 11 11 14 16 18 22 25 27 26 25 26 29 29 28 26 25 25 27 30 30 28 27 29 28 29 31
21 19 16 14 14 11 4 3 3 7 11 9 11 15 12 10 6 6 6 5 5 8 10 13 16 17 16 15 15 15 18 20 18 22 26 26 26 30 34 37 37 35 35
18 18 13 10 10 9 12 13 12 13 14 12 12 12 11 5 9 9 10 7 4 3 3 3 3 3 4 7 9 12 14 17 18 20 21 24 25 25 24 24 24 25 26
18 16 10 13 8 10 8 12 12 8 8 13 11 10 10 10 10 7 8 7 6 6 6 3 2 2 4 6 8 10 11 12 12 12 13 14 14 15 15 16 16 16 16
20 16 14 13 9 11 9 4 1 5 4 5 6 6 8 9 10 10 10 9 9 10 8 4 4 4 5 5 7 9 10 11 12 12 11 11 11 12 12 11 9 7 5
15 18 13 15 11 11 10 12 7 5 4 6 8 9 10 12 12 11 9 9 8 6 6 2 2 5 8 10 6 7 6 8 9 10 12 13 14 14 14 14 15 11 5
17 13 12 12 13 12 12 10 9 6 10 8 9 11 11 11 11 10 9 6 5 7 6 7 7 7 7 9 9 5 3 5 5 7 8 10 11 12 12 13 13 15 15
24 20 17 9 14 13 16 12 10 9 8 12 13 9 11 12 13 12 11 12 6 7 10 12 11 10 11 8 9 8 4 4 5 5 4 3 6 8 9 9 10 11 11
23 22 7 18 16 12 11 17 10 12 11 12 13 13 15 12 8 13 12 13 15 15 14 12 13 15 13 12 13 8 8 8 4 5 6 3 3 3 3 3 2 1 3
30 22 21 23 16 17 12 10 18 13 9 10 12 14 13 15 17 16 16 13 13 13 17 17 16 12 11 9 10 9 8 12 8 7 8 6 5 2 8 9 7 8 5
25 22 23 22 18 17 10 8 9 8 12 15 14 15 15 16 12 12 15 12 11 9 10 15 14 12 13 11 10 9 10 5 7 7 5 6 6 7 6 7 10 12 5
27 22 21 23 22 17 11 10 12 12 14 14 16 13 16 8 9 8 10 7 12 12 13 10 14 12 14 13 14 9 8 8 9 11 8 9 11 12 9 13 12 6 8
19 22 27 26 21 19 12 14 13 18 14 16 9 11 12 12 12 10 9 9 12 15 13 10 13 12 17 15 17 11 12 14 13 14 11 10 14 14 13 14 10 13 13
23 25 24 20 18 16 16 17 17 17 19 13 14 15 13 13 13 12 11 9 9 13 11 5 4 7 10 10 10 11 15 18 19 19 21 21 17 15 15 15 15 15 15
Wind_Direction
210 218 219 231 230 222 217 222 222 222 233 247 244 225 238 258 246 254 253 235 252 264 243 254 247 282 251 243 284 283 289 267 264 212 285 218 207 257 252 268 273 262 262
214 212 220 223 228 234 226 219 232 232 229 236 248 256 255 242 245 250 262 262 257 267 268 263 257 258 271 270 277 277 262 286 276 259 238 254 256 265 267 262 255 271 268
213 215 215 221 223 223 237 240 232 244 242 237 244 254 251 245 245 249 252 261 255 246 263 270 263 261 247 251 264 250 263 264 268 275 254 269 263 258 263 259 247 245 265
214 210 218 218 221 225 225 240 235 241 250 250 241 241 252 257 250 248 256 260 265 254 249 254 263 264 260 252 253 260 261 268 271 278 269 265 269 253 255 260 262 254 259
209 212 217 219 219 224 227 228 234 237 242 253 252 248 245 247 250 257 253 250 258 265 264 253 255 262 263 267 275 275 268 260 266 260 270 266 265 265 262 281 271 265 254
205 211 212 216 219 222 224 228 230 232 236 245 250 251 249 250 250 243 256 257 257 259 262 259 256 244 249 250 260 267 260 264 265 259 257 266 264 266 270 264 271 266 265
209 214 217 217 221 223 228 232 236 241 244 247 253 257 254 255 253 247 249 251 252 254 258 262 261 255 264 276 272 271 273 265 260 267 267 263 264 262 270 272 260 268 274
209 211 213 218 225 230 234 237 243 245 246 248 248 252 259 257 256 253 249 247 251 248 247 258 265 260 249 262 268 273 269 264 262 267 273 277 278 277 266 269 272 274 274
202 207 210 221 227 227 235 241 242 240 246 247 254 258 260 261 261 259 257 254 254 254 253 253 252 257 258 255 255 260 265 266 270 271 276 276 277 279 277 272 261 259 253
193 200 209 220 228 222 226 230 236 240 251 258 258 259 263 266 268 262 260 254 252 252 254 252 256 253 255 261 265 265 266 268 269 268 262 265 265 266 265 263 262 263 263
189 194 198 207 205 211 222 232 232 235 240 248 260 267 267 268 267 264 266 251 249 246 245 245 258 247 255 260 266 264 266 272 275 274 273 271 269 269 267 266 262 261 261
189 187 189 197 189 208 216 228 245 234 242 257 271 260 269 273 264 265 261 247 246 247 246 247 258 260 270 272 273 274 274 273 270 274 275 275 276 277 277 275 272 267 263
190 175 195 199 163 211 221 233 240 252 277 247 250 258 271 284 273 270 272 272 254 251 247 248 257 267 272 277 279 280 279 280 279 283 286 284 276 267 270 270 272 274 274
190 185 199 190 192 202 230 235 270 257 254 247 243 261 269 264 265 253 262 280 271 253 246 251 261 269 274 277 281 279 281 285 280 277 273 269 275 278 275 275 278 277 275
190 169 195 180 200 204 203 205 219 221 222 231 246 230 242 271 255 249 254 248 231 220 231 251 279 307 317 325 324 319 309 299 292 284 284 286 287 290 287 282 279 280 278
167 171 172 183 199 206 235 228 242 249 239 240 241 230 237 216 239 200 164 150 143 136 106 59 54 38 10 2 360 359 355 344 331 317 308 305 306 306 304 300 295 290 287
166 166 179 181 200 208 217 236 231 222 220 205 195 203 192 185 177 159 145 133 125 118 118 351 356 342 351 357 11 14 12 22 23 18 12 11 21 22 17 6 358 345 321
176 171 175 173 191 203 213 217 220 257 259 231 212 200 193 183 178 169 162 147 132 141 143 167 313 293 317 327 335 359 17 22 30 32 43 49 43 41 36 35 39 40 127
175 163 168 185 188 196 201 219 226 223 208 236 253 214 203 201 203 203 198 186 179 202 245 246 242 257 283 302 317 313 343 12 32 30 41 52 50 50 54 61 70 73 72
195 180 163 212 215 213 202 190 209 228 235 226 242 243 241 226 230 231 236 227 238 250 247 255 251 249 241 259 284 292 296 318 346 345 15 56 64 50 54 64 78 80 84
228 217 211 208 218 231 211 195 199 215 218 243 242 230 240 252 221 241 247 251 248 232 232 242 247 251 247 252 251 240 248 276 272 261 300 325 340 103 58 43 51 25 336
208 225 235 225 201 217 221 229 202 198 224 219 242 238 237 241 242 247 253 262 261 263 234 234 242 251 243 255 267 294 274 262 260 244 257 258 283 270 263 284 296 298 291
222 245 227 223 209 229 222 206 217 195 217 214 215 230 251 248 234 237 243 254 259 284 277 239 232 232 238 240 247 265 288 282 261 283 246 251 265 258 263 258 261 256 266
236 236 233 229 219 205 206 217 217 222 220 222 235 223 233 252 229 239 237 240 255 266 300 254 225 228 240 235 238 257 254 261 275 280 273 275 286 266 243 268 272 275 247
227 223 237 241 241 201 207 209 211 217 212 221 221 227 231 226 231 235 242 248 244 259 303 255 240 246 226 242 244 243 248 253 268 262 252 250 262 251 261 261 257 258 256
219 219 219 191 215 198 203 217 224 227 212 213 210 213 218 223 229 232 234 238 245 257 271 302 258 235 216 235 235 247 254 263 270 270 260 265 248 258 248 253 257 250 253
Height
1523 1527 1529 1532 1536 1539 1542 1543 1545 1547 1546 1545 1555 1558 1556 1550 1553 1556 1559 1560 1561 1562 1564 1564 1564 1565 1565 1566 1565 1564 1567 1567 1568 1570 1569 1567 1569 1567 1567 1567 1567 1567 1567
1519 1523 1526 1529 1532 1535 1537 1540 1541 1543 1543 1542 1542 1543 1545 1548 1551 1553 1555 1556 1558 1557 1559 1560 1561 1561 1563 1563 1563 1565 1564 1564 1565 1567 1567 1565 1566 1564 1563 1564 1565 1564 1565
1515 1519 1523 1525 1529 1531 1532 1535 1537 1538 1539 1540 1542 1543 1544 1546 1549 1550 1551 1553 1554 1555 1555 1556 1557 1558 1558 1559 1560 1560 1561 1561 1561 1562 1562 1560 1559 1560 1560 1561 1561 1560 1561
1509 1514 1518 1521 1524 1527 1530 1531 1533 1534 1535 1537 1539 1540 1542 1544 1545 1546 1547 1549 1550 1552 1553 1553 1553 1554 1555 1556 1557 1558 1558 1558 1558 1557 1557 1559 1558 1558 1558 1558 1558 1558 1557
1505 1509 1512 1516 1520 1524 1528 1529 1531 1532 1533 1534 1536 1537 1538 1539 1540 1542 1543 1545 1546 1547 1549 1550 1550 1551 1552 1552 1552 1553 1554 1554 1554 1555 1555 1556 1557 1555 1555 1556 1554 1554 1554
1501 1505 1508 1512 1516 1520 1522 1525 1527 1530 1530 1530 1530 1532 1533 1534 1535 1538 1540 1541 1542 1543 1543 1546 1546 1546 1547 1549 1549 1550 1551 1550 1551 1553 1552 1552 1552 1551 1552 1552 1549 1548 1548
1497 1501 1504 1507 1511 1514 1517 1520 1523 1525 1526 1527 1528 1528 1526 1528 1531 1533 1536 1537 1537 1538 1539 1541 1542 1543 1544 1544 1545 1546 1546 1546 1546 1547 1546 1546 1547 1548 1547 1545 1544 1543 1543
1493 1498 1501 1504 1506 1509 1512 1515 1517 1518 1520 1520 1521 1521 1523 1522 1525 1526 1530 1531 1532 1533 1535 1535 1536 1538 1538 1539 1540 1539 1539 1539 1540 1541 1540 1540 1540 1541 1540 1539 1539 1538 1538
1489 1494 1498 1501 1503 1506 1508 1510 1512 1513 1514 1516 1517 1517 1518 1519 1520 1520 1521 1523 1524 1526 1529 1530 1531 1532 1533 1534 1535 1534 1533 1532 1533 1534 1534 1533 1533 1534 1534 1534 1532 1533 1531
1485 1489 1493 1496 1499 1502 1505 1506 1508 1509 1510 1511 1512 1512 1513 1512 1513 1513 1515 1516 1518 1521 1523 1524 1526 1526 1527 1528 1528 1528 1527 1527 1528 1527 1527 1526 1525 1525 1526 1527 1527 1525 1525
1481 1485 1490 1493 1496 1499 1501 1503 1505 1506 1507 1507 1507 1508 1508 1507 1507 1509 1511 1511 1513 1515 1518 1521 1517 1519 1521 1522 1523 1523 1522 1520 1520 1519 1518 1519 1519 1517 1518 1518 1518 1519 1517
1477 1483 1487 1490 1493 1495 1498 1500 1502 1502 1503 1503 1504 1504 1504 1504 1504 1506 1507 1509 1510 1511 1514 1515 1514 1516 1517 1518 1517 1516 1515 1514 1512 1511 1510 1509 1509 1509 1509 1509 1508 1507 1507
1476 1481 1485 1487 1492 1493 1495 1497 1499 1499 1500 1502 1502 1501 1501 1502 1502 1503 1504 1505 1505 1506 1508 1509 1510 1511 1511 1511 1509 1509 1507 1505 1504 1503 1502 1502 1503 1501 1500 1499 1498 1497 1497
1472 1477 1481 1484 1487 1490 1492 1494 1496 1499 1499 1500 1500 1500 1500 1500 1500 1500 1500 1501 1501 1502 1503 1505 1506 1506 1505 1505 1504 1502 1500 1499 1498 1498 1496 1496 1493 1493 1492 1491 1490 1490 1488
1470 1475 1479 1484 1487 1489 1489 1490 1492 1494 1496 1496 1496 1497 1498 1498 1498 1499 1499 1498 1498 1500 1501 1502 1502 1502 1502 1501 1500 1498 1497 1494 1492 1491 1491 1489 1488 1486 1485 1483 1482 1481 1480
1469 1474 1477 1482 1484 1487 1487 1487 1489 1491 1492 1493 1493 1494 1494 1496 1497 1497 1497 1498 1499 1500 1501 1501 1501 1502 1501 1500 1499 1497 1494 1492 1490 1488 1486 1485 1483 1481 1480 1478 1477 1476 1476
1466 1469 1474 1478 1482 1485 1485 1485 1485 1488 1490 1490 1491 1492 1493 1495 1496 1497 1498 1498 1499 1500 1501 1502 1501 1501 1500 1499 1498 1496 1495 1493 1490 1488 1486 1484 1482 1481 1480 1478 1475 1474 1474
1472 1470 1471 1473 1477 1481 1484 1483 1484 1485 1487 1489 1490 1491 1493 1494 1496 1497 1498 1499 1500 1500 1501 1502 1502 1501 1500 1499 1497 1496 1495 1493 1492 1490 1488 1487 1485 1484 1482 1481 1479 1478 1477
1467 1471 1472 1473 1473 1476 1478 1480 1481 1482 1485 1487 1488 1490 1491 1493 1495 1495 1496 1498 1498 1499 1499 1500 1500 1500 1499 1498 1497 1496 1495 1494 1493 1492 1491 1490 1489 1488 1486 1485 1484 1484 1484
1466 1465 1462 1473 1472 1470 1472 1475 1479 1479 1481 1485 1487 1488 1488 1490 1491 1493 1493 1495 1496 1496 1497 1497 1497 1497 1498 1497 1497 1496 1494 1494 1493 1493 1493 1492 1492 1491 1490 1489 1489 1487 1487
1458 1460 1455 1467 1468 1467 1466 1468 1473 1476 1477 1480 1483 1485 1486 1487 1488 1489 1490 1490 1490 1490 1492 1492 1493 1494 1494 1494 1495 1495 1495 1494 1494 1494 1493 1492 1493 1492 1492 1491 1491 1491 1490
1450 1454 1460 1465 1465 1466 1464 1465 1468 1472 1472 1476 1479 1480 1482 1484 1485 1486 1486 1485 1486 1486 1486 1487 1488 1490 1490 1491 1491 1492 1493 1493 1492 1493 1493 1492 1492 1492 1491 1491 1491 1491 1491
1448 1453 1454 1459 1462 1463 1463 1465 1468 1469 1471 1473 1476 1477 1479 1480 1480 1480 1481 1481 1480 1482 1482 1483 1484 1486 1487 1488 1489 1490 1490 1490 1490 1490 1490 1490 1490 1490 1491 1491 1491 1491 1491
1448 1450 1455 1451 1456 1458 1460 1462 1466 1467 1470 1472 1470 1471 1473 1475 1476 1477 1479 1479 1476 1477 1479 1479 1480 1482 1483 1484 1486 1486 1487 1488 1488 1488 1488 1488 1488 1488 1489 1489 1489 1489 1489
1446 1449 1449 1449 1449 1452 1455 1459 1461 1464 1466 1467 1466 1468 1471 1472 1474 1475 1476 1476 1475 1474 1475 1474 1476 1478 1479 1480 1481 1483 1484 1485 1486 1486 1485 1486 1486 1486 1486 1485 1486 1486 1486
1441 1443 1442 1441 1446 1448 1453 1457 1458 1461 1460 1461 1461 1462 1465 1467 1469 1471 1471 1471 1472 1471 1471 1471 1472 1473 1475 1477 1478 1480 1481 1481 1481 1481 1481 1480 1481 1481 1482 1482 1482 1482 1482